Location: *
(50.3194°N, 7.1067°E)
Time: 22:13:04
(UTC+00:00)

Cosmos 2227 Rocket - Pass Details

Date: 22 September 2019
Orbit: 837 x 847 km, 71.0° (Epoch: 20 October)

Event Time Altitude Azimuth Distance (km) Brightness Sun altitude
Rises 19:46:06 0° 219° (SW) 3,386 5.5 -21.6°
Reaches altitude 10° 19:48:33 10° 223° (SW) 2,457 4.8 -21.9°
Maximum altitude 19:54:09 62° 304° (WNW) 951 2.7 -22.7°
Drops below altitude 10° 19:59:47 10° 25° (NNE) 2,478 4.7 -23.5°
Sets 20:02:17 0° 29° (NNE) 3,418 5.4 -23.8°
